Location: Songkhla
(7.2000°N, 100.6000°E)
Time: 14:24:32
(UTC+07:00)

LAPAN A2 - All Passes

Search period start: 10 December 2025 00:00
Search period end: 20 December 2025 00:00
Orbit: 624 x 642 km, 6.0° (Epoch: 31 May)

Date Brightness Start Highest point End Pass type
(mag) Time Alt. Az. Time Alt. Az. Time Alt. Az.
10 Dec - 00:06:39 10° SW 00:10:45 29° S 00:14:53 10° ESE night (unlit)
10 Dec - 01:50:32 10° WSW 01:55:01 41° S 01:59:30 10° ESE night (unlit)
10 Dec - 03:34:34 10° WSW 03:39:15 58° S 03:43:55 10° E visible
10 Dec - 05:18:45 10° W 05:23:29 73° S 05:28:12 10° E visible
10 Dec - 07:02:59 10° W 07:07:43 77° S 07:12:25 10° E daylight
10 Dec - 08:47:15 10° W 08:51:56 69° S 08:56:36 10° E daylight
10 Dec - 10:31:35 10° W 10:36:09 52° S 10:40:42 10° ESE daylight
10 Dec - 12:16:03 10° WSW 12:20:21 36° S 12:24:38 10° ESE daylight
10 Dec - 14:00:45 10° WSW 14:04:36 25° S 14:08:27 10° SE daylight
10 Dec - 15:45:37 10° SW 15:48:55 19° S 15:52:14 10° SE daylight
10 Dec - 17:30:27 10° SW 17:33:19 16° S 17:36:12 10° SE daylight
10 Dec - 19:14:55 10° SW 19:17:46 16° S 19:20:37 10° SE visible
10 Dec - 20:58:55 10° SW 21:02:11 18° S 21:05:29 10° SE visible
10 Dec - 22:42:42 10° SW 22:46:33 24° S 22:50:24 10° ESE night (unlit)
11 Dec - 00:26:31 10° WSW 00:30:50 34° S 00:35:09 10° ESE night (unlit)
11 Dec - 02:10:28 10° WSW 02:15:04 49° S 02:19:40 10° E night (unlit)
11 Dec - 03:54:34 10° WSW 03:59:18 66° S 04:04:01 10° E visible
11 Dec - 05:38:47 10° W 05:43:32 77° S 05:48:16 10° E visible
11 Dec - 07:23:03 10° W 07:27:46 74° S 07:32:28 10° E daylight
11 Dec - 09:07:20 10° W 09:11:59 61° S 09:16:37 10° ESE daylight
11 Dec - 10:51:44 10° WSW 10:56:12 43° S 11:00:38 10° ESE daylight
11 Dec - 12:36:19 10° WSW 12:40:25 30° S 12:44:31 10° SE daylight
11 Dec - 14:21:07 10° SW 14:24:41 22° S 14:28:17 10° SE daylight
11 Dec - 16:06:00 10° SW 16:09:04 17° S 16:12:06 10° SE daylight
11 Dec - 17:50:42 10° SW 17:53:29 15° S 17:56:16 10° SE daylight
11 Dec - 19:34:55 10° SW 19:37:55 17° S 19:40:56 10° SE visible
11 Dec - 21:18:46 10° SW 21:22:19 21° S 21:25:52 10° SE visible
11 Dec - 23:02:32 10° SW 23:06:38 29° S 23:10:44 10° ESE night (unlit)
12 Dec - 00:46:24 10° WSW 00:50:53 41° S 00:55:22 10° ESE night (unlit)
12 Dec - 02:30:26 10° WSW 02:35:07 58° S 02:39:48 10° E night (unlit)
12 Dec - 04:14:36 10° W 04:19:21 73° S 04:24:05 10° E visible
12 Dec - 05:58:50 10° W 06:03:35 77° S 06:08:19 10° E visible
12 Dec - 07:43:07 10° W 07:47:49 69° S 07:52:30 10° E daylight
12 Dec - 09:27:27 10° W 09:32:02 52° S 09:36:36 10° ESE daylight
12 Dec - 11:11:56 10° WSW 11:16:14 36° S 11:20:33 10° ESE daylight
12 Dec - 12:56:38 10° WSW 13:00:29 25° S 13:04:21 10° SE daylight
12 Dec - 14:41:30 10° SW 14:44:48 19° S 14:48:06 10° SE daylight
12 Dec - 16:26:22 10° SW 16:29:13 16° S 16:32:04 10° SE daylight
12 Dec - 18:10:50 10° SW 18:13:39 16° S 18:16:28 10° SE daylight
12 Dec - 19:54:50 10° SW 19:58:04 18° S 20:01:19 10° SE visible
12 Dec - 21:38:36 10° SW 21:42:25 24° S 21:46:15 10° ESE night (unlit)
12 Dec - 23:22:23 10° WSW 23:26:42 34° S 23:31:00 10° ESE night (unlit)
13 Dec - 01:06:20 10° WSW 01:10:56 49° S 01:15:32 10° E night (unlit)
13 Dec - 02:50:26 10° WSW 02:55:10 66° S 02:59:53 10° E visible
13 Dec - 04:34:38 10° W 04:39:24 77° S 04:44:09 10° E visible
13 Dec - 06:18:54 10° W 06:23:38 75° S 06:28:22 10° E daylight
13 Dec - 08:03:12 10° W 08:07:52 61° S 08:12:30 10° ESE daylight
13 Dec - 09:47:35 10° WSW 09:52:05 44° S 09:56:33 10° ESE daylight
13 Dec - 11:32:11 10° WSW 11:36:18 30° S 11:40:25 10° SE daylight
13 Dec - 13:16:59 10° SW 13:20:34 22° S 13:24:10 10° SE daylight
13 Dec - 15:01:54 10° SW 15:04:56 17° S 15:07:59 10° SE daylight
13 Dec - 16:46:37 10° SW 16:49:22 15° S 16:52:08 10° SE daylight
13 Dec - 18:30:50 10° SW 18:33:48 17° S 18:36:47 10° SE visible
13 Dec - 20:14:40 10° SW 20:18:11 21° S 20:21:43 10° SE visible
13 Dec - 21:58:26 10° SW 22:02:29 28° S 22:06:34 10° ESE night (unlit)
13 Dec - 23:42:17 10° WSW 23:46:44 41° S 23:51:13 10° ESE night (unlit)
14 Dec - 01:26:18 10° WSW 01:30:58 58° S 01:35:38 10° E night (unlit)
14 Dec - 03:10:27 10° W 03:15:12 73° S 03:19:57 10° E visible
14 Dec - 04:54:41 10° W 04:59:27 77° S 05:04:12 10° E visible
14 Dec - 06:38:58 10° W 06:43:41 69° S 06:48:23 10° E daylight
14 Dec - 08:23:18 10° W 08:27:55 52° S 08:32:29 10° ESE daylight
14 Dec - 10:07:47 10° WSW 10:12:07 36° S 10:16:27 10° ESE daylight
14 Dec - 11:52:29 10° WSW 11:56:22 25° S 12:00:15 10° SE daylight
14 Dec - 13:37:23 10° SW 13:40:42 19° S 13:44:00 10° SE daylight
14 Dec - 15:22:15 10° SW 15:25:05 16° S 15:27:56 10° SE daylight
14 Dec - 17:06:44 10° SW 17:09:31 16° S 17:12:20 10° SE daylight
14 Dec - 18:50:44 10° SW 18:53:56 18° S 18:57:10 10° SE visible
14 Dec - 20:34:30 10° SW 20:38:17 24° S 20:42:06 10° ESE visible
14 Dec - 22:18:17 10° WSW 22:22:33 34° S 22:26:50 10° ESE night (unlit)
15 Dec - 00:02:12 10° WSW 00:06:47 49° S 00:11:22 10° E night (unlit)
15 Dec - 01:46:17 10° WSW 01:51:00 66° S 01:55:44 10° E night (unlit)
15 Dec - 03:30:30 10° W 03:35:15 77° S 03:40:01 10° E visible
15 Dec - 05:14:44 10° W 05:19:29 75° S 05:24:14 10° E visible
15 Dec - 06:59:02 10° W 07:03:44 61° S 07:08:24 10° ESE daylight
15 Dec - 08:43:26 10° WSW 08:47:57 44° S 08:52:26 10° ESE daylight
15 Dec - 10:28:01 10° WSW 10:32:11 30° S 10:36:18 10° SE daylight
15 Dec - 12:12:51 10° SW 12:16:28 22° S 12:20:04 10° SE daylight
15 Dec - 13:57:46 10° SW 14:00:49 17° S 14:03:52 10° SE daylight
15 Dec - 15:42:30 10° SW 15:45:15 15° S 15:48:00 10° SE daylight
15 Dec - 17:26:43 10° SW 17:29:41 16° S 17:32:39 10° SE daylight
15 Dec - 19:10:35 10° SW 19:14:03 20° S 19:17:33 10° SE visible
15 Dec - 20:54:19 10° SW 20:58:22 28° S 21:02:25 10° ESE visible
15 Dec - 22:38:10 10° WSW 22:42:36 41° S 22:47:03 10° ESE night (unlit)
16 Dec - 00:22:10 10° WSW 00:26:49 57° S 00:31:29 10° E night (unlit)
16 Dec - 02:06:19 10° W 02:11:03 73° S 02:15:48 10° E night (unlit)
16 Dec - 03:50:32 10° W 03:55:18 77° S 04:00:04 10° E visible
16 Dec - 05:34:48 10° W 05:39:32 69° S 05:44:16 10° E visible
16 Dec - 07:19:08 10° W 07:23:46 53° S 07:28:23 10° ESE daylight
16 Dec - 09:03:37 10° WSW 09:08:00 37° S 09:12:20 10° ESE daylight
16 Dec - 10:48:20 10° WSW 10:52:15 26° S 10:56:09 10° SE daylight
16 Dec - 12:33:14 10° SW 12:36:35 19° S 12:39:54 10° SE daylight
16 Dec - 14:18:06 10° SW 14:20:58 16° S 14:23:49 10° SE daylight
16 Dec - 16:02:37 10° SW 16:05:25 16° S 16:08:12 10° SE daylight
16 Dec - 17:46:38 10° SW 17:49:49 18° S 17:53:01 10° SE daylight
16 Dec - 19:30:24 10° SW 19:34:09 24° S 19:37:56 10° ESE visible
16 Dec - 21:14:11 10° WSW 21:18:25 34° S 21:22:41 10° ESE visible
16 Dec - 22:58:06 10° WSW 23:02:39 49° S 23:07:13 10° E night (unlit)
17 Dec - 00:42:10 10° WSW 00:46:52 66° S 00:51:34 10° E night (unlit)
17 Dec - 02:26:21 10° W 02:31:05 76° S 02:35:51 10° E night (unlit)
17 Dec - 04:10:35 10° W 04:15:21 75° S 04:20:06 10° E visible
17 Dec - 05:54:53 10° W 05:59:34 61° S 06:04:16 10° ESE visible
17 Dec - 07:39:17 10° WSW 07:43:49 44° S 07:48:19 10° ESE daylight
17 Dec - 09:23:52 10° WSW 09:28:03 31° S 09:32:12 10° SE daylight
17 Dec - 11:08:41 10° WSW 11:12:20 22° S 11:15:58 10° SE daylight
17 Dec - 12:53:37 10° SW 12:56:42 17° S 12:59:46 10° SE daylight
17 Dec - 14:38:22 10° SW 14:41:08 15° S 14:43:53 10° SE daylight
17 Dec - 16:22:37 10° SW 16:25:34 16° S 16:28:30 10° SE daylight
17 Dec - 18:06:28 10° SW 18:09:56 20° S 18:13:24 10° SE daylight
17 Dec - 19:50:13 10° SW 19:54:14 28° S 19:58:15 10° ESE visible
17 Dec - 21:34:04 10° WSW 21:38:28 40° S 21:42:54 10° ESE visible
17 Dec - 23:18:03 10° WSW 23:22:41 57° S 23:27:20 10° E night (unlit)
18 Dec - 01:02:11 10° W 01:06:54 72° S 01:11:38 10° E night (unlit)
18 Dec - 02:46:24 10° W 02:51:08 77° S 02:55:54 10° E visible
18 Dec - 04:30:39 10° W 04:35:23 69° S 04:40:08 10° E visible
18 Dec - 06:14:58 10° W 06:19:37 53° S 06:24:15 10° ESE daylight
18 Dec - 07:59:27 10° WSW 08:03:51 37° S 08:08:13 10° ESE daylight
18 Dec - 09:44:09 10° WSW 09:48:07 26° S 09:52:02 10° SE daylight
18 Dec - 11:29:04 10° SW 11:32:27 19° S 11:35:48 10° SE daylight
18 Dec - 13:13:57 10° SW 13:16:51 16° S 13:19:43 10° SE daylight
18 Dec - 14:58:29 10° SW 15:01:17 16° S 15:04:04 10° SE daylight
18 Dec - 16:42:30 10° SW 16:45:42 18° S 16:48:53 10° SE daylight
18 Dec - 18:26:17 10° SW 18:30:02 24° S 18:33:47 10° ESE visible
18 Dec - 20:10:04 10° WSW 20:14:18 33° S 20:18:31 10° ESE visible
18 Dec - 21:53:59 10° WSW 21:58:30 48° S 22:03:03 10° E night (unlit)
18 Dec - 23:38:03 10° WSW 23:42:43 66° S 23:47:25 10° E night (unlit)
19 Dec - 01:22:13 10° W 01:26:56 76° S 01:31:41 10° E night (unlit)
19 Dec - 03:06:27 10° W 03:11:11 75° S 03:15:56 10° E visible
19 Dec - 04:50:43 10° W 04:55:25 61° S 05:00:08 10° ESE visible
19 Dec - 06:35:06 10° WSW 06:39:39 44° S 06:44:11 10° ESE daylight
19 Dec - 08:19:41 10° WSW 08:23:53 31° S 08:28:05 10° SE daylight
19 Dec - 10:04:31 10° WSW 10:08:11 22° S 10:11:52 10° SE daylight
19 Dec - 11:49:27 10° SW 11:52:34 17° S 11:55:40 10° SE daylight
19 Dec - 13:34:12 10° SW 13:37:00 15° S 13:39:46 10° SE daylight
19 Dec - 15:18:28 10° SW 15:21:26 16° S 15:24:23 10° SE daylight
19 Dec - 17:02:21 10° SW 17:05:49 20° S 17:09:16 10° SE daylight
19 Dec - 18:46:07 10° SW 18:50:06 28° S 18:54:06 10° ESE visible
19 Dec - 20:29:57 10° WSW 20:34:20 40° S 20:38:44 10° ESE visible
19 Dec - 22:13:56 10° WSW 22:18:32 57° S 22:23:10 10° E night (unlit)
